Flag for Kuwait Weather past 2 weeks in Kuwait City, Kuwait

Now
66 °F

Clear.


Feels Like: 66 °F
Forecast: 53 / 68 °F
Wind: 13 mph from North

Location: Kuwait International Airport

Current Time: Jan 31, 2015 at 4:46:25 AM

Latest Report: Jan 31, 2015 at 4:00 AM


Visibility: 4 mi

Pressure: 30.04 "Hg

Humidity: 68%

Dew point: 55 °F

Location of Kuwait CityLocation

Historic Weather in Kuwait City — Graph

°F

Kuwait City temperature yesterday

Maximum temperature yesterday: 86 °F (at 3:00 PM)
Minimum temperature yesterday: 55 °F (at 5:00 AM)
Average temperature yesterday: 67 °F

Past Weeks' High & Low Weather Summary

 TemperatureHumidityPressure
High86 °F (Jan 30, 3:00 PM)100% (Jan 25, 12:00 AM)30.27 "Hg (Jan 25, 12:00 AM)
Low34 °F (Jan 22, 6:00 AM)13% (Jan 29, 2:00 PM)29.83 "Hg (Jan 29, 2:00 PM)
Average57 °F57%30.10 "Hg
* Reported Jan 16 4:00 AM — Jan 31 4:00 AM, Kuwait City, Weather by CustomWeather, © 2014

Note: Actual official high and low records may vary slightly from our data, if they occured in-between our weather recording intervals... More about our weather records

Advertising

Kuwait City weather history for previous 24 hours

 ConditionsComfort  
Time TempWeatherWind HumidityBarometerVisibility
4:00 AM
Jan 31
66 °FClear.13 mph68%30.04 "Hg4 mi
3:00 AM64 °FClear.8 mph56%30.01 "Hg4 mi
2:00 AM61 °FClear.3 mph45%30.01 "Hg4 mi
1:00 AM61 °FClear.No wind42%30.01 "Hg4 mi
12:00 AM61 °FClear.3 mph45%30.01 "Hg4 mi
11:00 PM
Jan 30
61 °FClear.5 mph52%30.01 "Hg4 mi
10:00 PM63 °FClear.3 mph56%29.98 "Hg4 mi
9:00 PM64 °FClear.No wind52%29.98 "Hg4 mi
8:00 PM64 °FClear.No wind52%29.95 "Hg4 mi
7:00 PM68 °FClear.No wind53%29.92 "Hg4 mi
6:00 PM72 °FClear.6 mph53%29.89 "Hg4 mi
5:00 PM75 °FClear.3 mph44%29.86 "Hg4 mi
4:00 PM84 °FSunny.8 mph25%29.86 "Hg4 mi
3:00 PM86 °FClear.8 mph19%29.86 "Hg4 mi
2:00 PM84 °FClear.13 mph18%29.86 "Hg4 mi
1:00 PM81 °FSunny.15 mph20%29.89 "Hg10 mi
12:00 PM75 °FSunny.16 mph29%29.92 "Hg10 mi
11:00 AM73 °FSunny.14 mph33%29.95 "Hg10 mi
10:00 AM68 °FSunny.15 mph35%29.95 "Hg10 mi
9:00 AM64 °FSunny.12 mph40%29.98 "Hg10 mi
8:00 AM59 °FSunny.8 mph55%29.95 "Hg5 mi
7:00 AM55 °FSunny.6 mph77%29.92 "Hg4 mi
6:00 AM55 °FFog.3 mph88%29.92 "Hg3 mi
5:00 AM55 °FFog.5 mph88%29.89 "Hg3 mi
4:00 AM59 °FClear.10 mph88%29.89 "Hg4 mi
Weather by CustomWeather, © 2014

See weather overviewHow to use our weather pages